Location: Christianberg
(48.9086°N, 14.0209°E)
Time: 21:02:50
(UTC+00:00)

Nadezhda 4 Rocket - Pass Details

Date: 20 June 2021
Orbit: 950 x 991 km, 82.9° (Epoch: 03 August)

Event Time Altitude Azimuth Distance (km) Brightness Sun altitude
Exits shadow 00:30:50 22° 192° (SSW) 1,963 5.0 -15.2°
Maximum altitude 00:35:01 83° 279° (W) 967 3.9 -14.9°
Drops below altitude 10° 00:41:10 10° 8° (N) 2,688 7.6 -14.6°
Sets 00:43:40 0° 9° (N) 3,637 8.6 -14.4°
